N6306Q KSAN-KBUR

Flight info

Callsign N6306Q
Flight time 0h 41m
Altitude 20000
Route SANP18
Aircraft TBM9/L-V/N

Departure

Time 2026-04-23 03:01
Airport San Diego International Airport (KSAN)

Arrival

Time 2026-04-23 03:42
Airport Hollywood Burbank/Bob Hope Airport (KBUR)
Time Latitude Longitude Altitude Speed Heading
2026-04-23 02:13 32.73372 -117.17966 21 ft 0 kts 194°
2026-04-23 02:27 32.73372 -117.17967 21 ft 0 kts 194°
2026-04-23 02:58 32.73338 -117.17962 21 ft 12 kts 180°
2026-04-23 02:58 32.73235 -117.17949 17 ft 19 kts 124°
2026-04-23 02:58 32.73183 -117.17779 18 ft 25 kts 107°
2026-04-23 02:59 32.73126 -117.17581 17 ft 20 kts 131°
2026-04-23 02:59 32.73099 -117.17557 17 ft 0 kts 140°
2026-04-23 03:00 32.73020 -117.17550 18 ft 13 kts 250°
2026-04-23 03:01 32.73097 -117.17885 20 ft 74 kts 287°
2026-04-23 03:01 32.73295 -117.18606 239 ft 106 kts 289°
2026-04-23 03:01 32.73556 -117.19500 697 ft 122 kts 303°
2026-04-23 03:01 32.74063 -117.20358 1201 ft 130 kts 304°
2026-04-23 03:02 32.74576 -117.21248 1716 ft 131 kts 304°
2026-04-23 03:02 32.75089 -117.22160 2228 ft 134 kts 304°
2026-04-23 03:02 32.75608 -117.23102 2743 ft 139 kts 304°
2026-04-23 03:02 32.76144 -117.24081 3253 ft 144 kts 304°
2026-04-23 03:03 32.76707 -117.25098 3760 ft 151 kts 304°
2026-04-23 03:03 32.77298 -117.26153 4263 ft 155 kts 304°
2026-04-23 03:03 32.77912 -117.27223 4785 ft 158 kts 304°
2026-04-23 03:03 32.78543 -117.28306 5279 ft 160 kts 304°
2026-04-23 03:04 32.79185 -117.29401 5775 ft 162 kts 304°
2026-04-23 03:04 32.79834 -117.30510 6271 ft 166 kts 304°
2026-04-23 03:04 32.80508 -117.31664 6738 ft 173 kts 304°
2026-04-23 03:04 32.81207 -117.32860 7206 ft 178 kts 304°
2026-04-23 03:05 32.81929 -117.34081 7680 ft 182 kts 304°
2026-04-23 03:05 32.82667 -117.35322 7992 ft 194 kts 304°
2026-04-23 03:05 32.83498 -117.36712 7996 ft 216 kts 304°
2026-04-23 03:05 32.84397 -117.38223 8003 ft 230 kts 304°
2026-04-23 03:06 32.85339 -117.39809 8005 ft 238 kts 304°
2026-04-23 03:06 32.86308 -117.41435 7996 ft 243 kts 304°
2026-04-23 03:06 32.87555 -117.42798 8001 ft 247 kts 324°
2026-04-23 03:06 32.89055 -117.43824 7996 ft 250 kts 328°
2026-04-23 03:07 32.90535 -117.44895 7998 ft 248 kts 317°
2026-04-23 03:07 32.91792 -117.46296 7990 ft 248 kts 317°
2026-04-23 03:07 32.93152 -117.47568 7990 ft 249 kts 321°
2026-04-23 03:07 32.94601 -117.48717 7985 ft 251 kts 326°
2026-04-23 03:08 32.96017 -117.49901 7988 ft 248 kts 315°
2026-04-23 03:08 32.97149 -117.51446 7987 ft 248 kts 306°
2026-04-23 03:08 32.98219 -117.53057 7987 ft 248 kts 307°
2026-04-23 03:08 32.99281 -117.54646 7987 ft 248 kts 307°
2026-04-23 03:09 33.00342 -117.56264 7987 ft 248 kts 307°
2026-04-23 03:09 33.01402 -117.57884 7986 ft 248 kts 307°
2026-04-23 03:09 33.02463 -117.59499 7986 ft 248 kts 307°
2026-04-23 03:09 33.03524 -117.61117 7984 ft 248 kts 307°
2026-04-23 03:10 33.04584 -117.62734 7986 ft 248 kts 307°
2026-04-23 03:10 33.05648 -117.64353 7983 ft 248 kts 307°
2026-04-23 03:10 33.06709 -117.65975 7984 ft 248 kts 307°
2026-04-23 03:10 33.07770 -117.67594 7985 ft 248 kts 307°
2026-04-23 03:11 33.08831 -117.69214 7983 ft 248 kts 307°
2026-04-23 03:11 33.09889 -117.70835 7986 ft 248 kts 307°
2026-04-23 03:11 33.10944 -117.72459 7981 ft 248 kts 307°
2026-04-23 03:11 33.12004 -117.74086 7980 ft 248 kts 307°
2026-04-23 03:12 33.13059 -117.75709 7985 ft 248 kts 307°
2026-04-23 03:12 33.14116 -117.77334 7987 ft 248 kts 307°
2026-04-23 03:12 33.15172 -117.78960 7985 ft 248 kts 307°
2026-04-23 03:12 33.16228 -117.80586 7984 ft 248 kts 307°
2026-04-23 03:13 33.17316 -117.82184 7987 ft 248 kts 312°
2026-04-23 03:13 33.18673 -117.83469 7986 ft 250 kts 325°
2026-04-23 03:13 33.20254 -117.84360 7986 ft 254 kts 338°
2026-04-23 03:13 33.21948 -117.84955 7987 ft 254 kts 340°
2026-04-23 03:14 33.23638 -117.85580 7985 ft 254 kts 339°
2026-04-23 03:14 33.25329 -117.86198 7986 ft 254 kts 340°
2026-04-23 03:14 33.27020 -117.86806 7987 ft 254 kts 340°
2026-04-23 03:14 33.28712 -117.87415 7987 ft 254 kts 340°
2026-04-23 03:15 33.30381 -117.88020 7984 ft 254 kts 340°
2026-04-23 03:15 33.32072 -117.88632 7987 ft 254 kts 340°
2026-04-23 03:15 33.33767 -117.89247 7987 ft 254 kts 340°
2026-04-23 03:15 33.35462 -117.89860 7988 ft 254 kts 340°
2026-04-23 03:16 33.37157 -117.90475 7987 ft 254 kts 340°
2026-04-23 03:16 33.38850 -117.91088 7987 ft 254 kts 340°
2026-04-23 03:16 33.42232 -117.92315 7986 ft 254 kts 340°
2026-04-23 03:17 33.43925 -117.92930 7983 ft 254 kts 340°
2026-04-23 03:17 33.45615 -117.93544 7985 ft 254 kts 340°
2026-04-23 03:17 33.47285 -117.94150 7986 ft 254 kts 340°
2026-04-23 03:17 33.48979 -117.94767 7981 ft 254 kts 340°
2026-04-23 03:18 33.50670 -117.95381 7987 ft 254 kts 340°
2026-04-23 03:18 33.52364 -117.95998 7983 ft 254 kts 340°
2026-04-23 03:18 33.54058 -117.96614 7981 ft 254 kts 340°
2026-04-23 03:18 33.55753 -117.97231 7986 ft 255 kts 340°
2026-04-23 03:19 33.57447 -117.97848 8079 ft 250 kts 340°
2026-04-23 03:19 33.59060 -117.98432 8573 ft 236 kts 339°
2026-04-23 03:19 33.60598 -117.98993 9072 ft 227 kts 338°
2026-04-23 03:19 33.62088 -117.99538 9579 ft 221 kts 338°
2026-04-23 03:20 33.63548 -118.00071 10079 ft 217 kts 337°
2026-04-23 03:20 33.64990 -118.00597 10452 ft 220 kts 337°
2026-04-23 03:20 33.66502 -118.01157 10470 ft 235 kts 337°
2026-04-23 03:20 33.68078 -118.01732 10440 ft 244 kts 338°
2026-04-23 03:21 33.69724 -118.02330 10445 ft 249 kts 338°
2026-04-23 03:21 33.71394 -118.02939 10446 ft 252 kts 338°
2026-04-23 03:21 33.73079 -118.03554 10446 ft 254 kts 338°
2026-04-23 03:21 33.74765 -118.04195 10444 ft 253 kts 334°
2026-04-23 03:22 33.76306 -118.05174 10443 ft 249 kts 322°
2026-04-23 03:22 33.77626 -118.06493 10444 ft 246 kts 311°
2026-04-23 03:22 33.78685 -118.08095 10445 ft 244 kts 301°
2026-04-23 03:22 33.79444 -118.09912 10443 ft 243 kts 290°
2026-04-23 03:23 33.79943 -118.11852 10472 ft 243 kts 287°
2026-04-23 03:23 33.80444 -118.13788 10479 ft 243 kts 287°
2026-04-23 03:23 33.80940 -118.15703 10491 ft 243 kts 287°
2026-04-23 03:23 33.81431 -118.17645 10491 ft 243 kts 287°
2026-04-23 03:24 33.81926 -118.19592 10494 ft 243 kts 287°
2026-04-23 03:24 33.82418 -118.21538 10492 ft 243 kts 287°
2026-04-23 03:24 33.82911 -118.23481 10490 ft 243 kts 287°
2026-04-23 03:24 33.83403 -118.25421 10489 ft 243 kts 287°
2026-04-23 03:25 33.83896 -118.27366 10503 ft 243 kts 287°
2026-04-23 03:25 33.84389 -118.29316 10500 ft 243 kts 287°
2026-04-23 03:25 33.84882 -118.31265 10502 ft 243 kts 287°
2026-04-23 03:25 33.85385 -118.33206 10499 ft 243 kts 289°
2026-04-23 03:26 33.86142 -118.35020 10500 ft 244 kts 301°
2026-04-23 03:26 33.87175 -118.36609 10499 ft 246 kts 311°
2026-04-23 03:26 33.88447 -118.37992 10501 ft 247 kts 315°
2026-04-23 03:26 33.89729 -118.39362 10496 ft 246 kts 314°
2026-04-23 03:27 33.91119 -118.40572 10494 ft 249 kts 326°
2026-04-23 03:27 33.92627 -118.41601 10497 ft 249 kts 325°
2026-04-23 03:27 33.94119 -118.42667 10496 ft 249 kts 324°
2026-04-23 03:27 33.95611 -118.43733 10501 ft 250 kts 325°
2026-04-23 03:28 33.97106 -118.44794 10501 ft 249 kts 325°
2026-04-23 03:28 33.98602 -118.45855 10477 ft 250 kts 325°
2026-04-23 03:28 34.00052 -118.46875 10014 ft 224 kts 325°
2026-04-23 03:28 34.01331 -118.47779 9487 ft 205 kts 324°
2026-04-23 03:29 34.02537 -118.48643 8957 ft 199 kts 325°
2026-04-23 03:29 34.03716 -118.49485 8441 ft 196 kts 326°
2026-04-23 03:29 34.04888 -118.50319 7938 ft 195 kts 327°
2026-04-23 03:29 34.06113 -118.51194 7453 ft 212 kts 327°
2026-04-23 03:30 34.07405 -118.52112 6979 ft 218 kts 328°
2026-04-23 03:30 34.08727 -118.53051 6506 ft 222 kts 328°
2026-04-23 03:30 34.10064 -118.54003 6000 ft 224 kts 329°
2026-04-23 03:30 34.11407 -118.54959 5496 ft 224 kts 329°
2026-04-23 03:31 34.12750 -118.55914 5002 ft 225 kts 329°
2026-04-23 03:31 34.14131 -118.56901 4502 ft 234 kts 329°
2026-04-23 03:31 34.15529 -118.57896 4034 ft 237 kts 329°
2026-04-23 03:31 34.16919 -118.58889 3995 ft 231 kts 329°
2026-04-23 03:32 34.18318 -118.59886 3999 ft 234 kts 329°
2026-04-23 03:32 34.19725 -118.60890 3999 ft 235 kts 329°
2026-04-23 03:32 34.21023 -118.62087 3992 ft 237 kts 310°
2026-04-23 03:32 34.21664 -118.63911 3988 ft 240 kts 278°
2026-04-23 03:33 34.21708 -118.65929 3993 ft 241 kts 270°
2026-04-23 03:33 34.21706 -118.67961 3993 ft 242 kts 272°
2026-04-23 03:33 34.21726 -118.69990 3994 ft 241 kts 271°
2026-04-23 03:33 34.21452 -118.71948 3984 ft 226 kts 247°
2026-04-23 03:34 34.20479 -118.73342 3742 ft 216 kts 217°
2026-04-23 03:34 34.19141 -118.74022 3689 ft 205 kts 191°
2026-04-23 03:34 34.17751 -118.73949 3682 ft 198 kts 165°
2026-04-23 03:34 34.16555 -118.73208 3683 ft 195 kts 140°
2026-04-23 03:35 34.15717 -118.71941 3685 ft 193 kts 115°
2026-04-23 03:35 34.15386 -118.70385 3683 ft 192 kts 90°
2026-04-23 03:35 34.15602 -118.68822 3685 ft 188 kts 66°
2026-04-23 03:35 34.16303 -118.67519 3684 ft 184 kts 44°
2026-04-23 03:36 34.17235 -118.66378 3693 ft 202 kts 44°
2026-04-23 03:36 34.18236 -118.65120 3697 ft 217 kts 44°
2026-04-23 03:36 34.19298 -118.63780 3697 ft 224 kts 46°
2026-04-23 03:36 34.20041 -118.62129 3694 ft 224 kts 76°
2026-04-23 03:37 34.20100 -118.60374 3686 ft 200 kts 90°
2026-04-23 03:37 34.20072 -118.58745 3674 ft 189 kts 88°
2026-04-23 03:37 34.20058 -118.57222 3690 ft 168 kts 90°
2026-04-23 03:37 34.20036 -118.55841 3689 ft 161 kts 88°
2026-04-23 03:38 34.20022 -118.54491 3582 ft 163 kts 89°
2026-04-23 03:38 34.20001 -118.53102 3376 ft 167 kts 89°
2026-04-23 03:38 34.19982 -118.51683 3151 ft 169 kts 89°
2026-04-23 03:38 34.19963 -118.50330 2931 ft 153 kts 89°
2026-04-23 03:39 34.19946 -118.49078 2730 ft 146 kts 89°
2026-04-23 03:39 34.19934 -118.47862 2535 ft 144 kts 89°
2026-04-23 03:39 34.19919 -118.46679 2349 ft 142 kts 89°
2026-04-23 03:39 34.19903 -118.45488 2161 ft 142 kts 90°
2026-04-23 03:40 34.19888 -118.44358 1987 ft 127 kts 90°
2026-04-23 03:40 34.19875 -118.43362 1831 ft 115 kts 90°
2026-04-23 03:40 34.19862 -118.42405 1681 ft 113 kts 90°
2026-04-23 03:40 34.19851 -118.41453 1522 ft 113 kts 91°
2026-04-23 03:41 34.19846 -118.40514 1378 ft 111 kts 90°
2026-04-23 03:41 34.19850 -118.39901 1278 ft 110 kts 92°
2026-04-23 03:41 34.19824 -118.38986 1143 ft 107 kts 97°
2026-04-23 03:41 34.19808 -118.38108 995 ft 104 kts 90°
2026-04-23 03:42 34.19795 -118.37241 828 ft 99 kts 91°
2026-04-23 03:42 34.19785 -118.36496 726 ft 77 kts 91°
2026-04-23 03:42 34.19782 -118.36099 718 ft 26 kts 90°
2026-04-23 03:42 34.19828 -118.36028 718 ft 14 kts